Theta_e
346 350 346 353 368 366 346 348 346 353 353 349 349 352 352 344 348 354 349 350 347 349 348 347 347 351 355 353 350 343 344 344 343 343 347 346 349 349 351 351 351 352 351 351 352 352 348 346 350
344 348 352 358 371 344 345 345 348 350 351 349 352 354 355 359 352 349 352 351 346 347 348 349 349 354 354 352 348 344 345 346 350 349 348 349 351 350 349 352 351 352 352 352 353 351 348 344 351
349 351 359 368 371 342 345 344 348 348 349 348 349 349 353 357 349 348 350 348 348 347 346 347 348 353 353 352 347 346 347 351 352 350 347 351 351 351 352 351 350 353 351 352 351 348 347 343 346
352 360 361 370 358 338 341 341 348 348 347 347 350 356 350 351 351 350 349 346 345 346 344 344 345 352 354 347 347 348 349 352 352 351 350 347 350 349 352 352 351 351 351 352 351 348 349 342 344
343 356 366 371 354 338 338 342 348 349 349 351 352 356 352 350 351 348 348 343 339 343 341 339 340 350 353 352 352 350 351 351 350 352 350 345 346 348 346 349 352 351 351 352 348 347 347 340 341
354 351 364 356 344 337 341 340 345 350 351 353 354 353 351 351 349 348 346 345 344 336 338 339 337 338 340 344 346 348 351 352 352 353 352 351 347 348 346 346 348 351 350 350 349 349 348 340 336
359 365 368 354 346 339 338 338 340 348 352 354 351 353 348 347 349 348 345 348 347 337 336 336 338 337 340 348 351 348 351 352 352 349 345 349 350 345 345 347 345 350 347 348 349 352 346 345 336
360 360 357 346 345 344 335 342 338 342 349 350 349 353 350 346 348 351 350 348 348 338 338 340 344 343 339 344 346 345 347 351 352 350 345 345 350 352 348 344 343 346 349 351 351 348 348 341 338
349 352 358 353 346 345 340 343 342 342 346 348 349 348 346 347 347 351 352 350 348 344 340 340 343 344 340 339 340 343 348 351 350 350 353 353 351 352 350 344 343 347 347 351 348 350 345 340 337
348 346 352 349 346 344 343 341 341 343 347 351 351 348 347 347 347 352 354 353 352 349 344 341 342 341 340 340 342 343 347 343 347 349 349 349 346 345 346 346 344 350 349 349 348 346 346 342 336
340 346 341 336 341 341 343 344 340 342 345 350 352 349 347 347 346 349 354 354 353 350 350 347 344 344 345 344 342 343 342 343 343 344 345 347 347 345 347 349 348 348 352 350 350 348 347 345 338
335 330 329 330 335 339 345 344 344 343 342 348 349 348 347 347 346 346 347 353 354 354 353 351 348 350 350 351 351 347 344 344 344 345 349 350 348 342 347 347 348 347 348 348 346 344 344 345 342
331 328 327 327 328 331 345 347 345 344 343 349 349 348 347 347 347 347 348 347 354 354 353 353 350 349 349 351 354 352 348 348 350 351 349 350 346 345 347 347 348 348 348 348 343 344 345 344 344
330 326 325 325 328 329 337 337 343 345 343 349 348 348 347 347 348 348 349 348 348 353 353 352 352 350 349 351 354 354 349 349 351 351 350 347 344 344 344 347 348 348 348 347 346 348 348 348 348
324 323 324 326 328 328 329 331 336 344 344 348 348 347 348 347 349 349 349 349 348 348 352 353 352 351 351 352 352 351 350 351 352 352 350 347 343 343 343 345 347 347 348 348 347 349 348 348 348
324 323 324 326 326 328 329 330 338 345 347 348 348 348 349 348 348 350 349 349 349 349 350 353 352 352 352 352 353 352 347 348 348 351 350 348 346 340 339 341 343 347 347 348 350 349 349 348 347
319 323 324 326 327 327 330 336 338 342 347 348 348 347 349 348 348 349 349 348 349 349 350 352 352 352 352 351 352 352 350 349 349 350 349 350 350 349 349 346 343 346 347 347 347 347 348 347 347
322 322 323 325 326 325 331 337 338 338 347 348 348 347 347 347 347 347 349 348 349 350 350 351 351 351 352 352 353 352 347 348 347 344 346 346 349 350 349 350 347 344 347 346 347 345 345 345 345
322 322 323 324 325 325 325 329 339 339 341 346 347 348 347 346 345 346 348 350 350 351 352 353 353 353 355 355 356 355 352 350 346 341 346 348 349 349 350 350 346 343 347 347 345 347 348 348 346
322 322 322 323 324 324 324 325 325 329 335 335 341 346 347 347 345 345 348 352 351 354 353 354 354 355 356 357 357 356 353 351 346 342 347 351 351 351 349 347 345 344 346 347 347 348 348 347 347
322 321 322 322 323 323 324 323 322 323 325 327 329 341 345 347 347 347 348 353 353 355 354 354 355 356 357 357 358 356 354 352 351 346 349 352 351 350 349 347 345 344 346 347 347 346 343 344 346
321 323 323 323 322 322 322 321 321 321 322 326 327 342 345 346 347 348 347 353 355 355 355 355 356 356 358 358 359 356 354 350 349 344 349 351 350 350 349 346 344 344 344 346 346 345 342 341 344
323 323 322 323 322 320 320 319 320 322 325 333 336 338 346 346 346 348 347 350 356 356 356 356 358 359 361 360 359 357 356 354 347 342 345 351 350 349 348 347 345 342 343 345 345 343 341 341 340
324 322 320 318 316 318 319 321 322 321 325 334 338 347 348 347 347 346 347 351 357 360 357 358 362 362 361 360 360 360 349 349 351 353 352 352 350 350 348 349 347 343 342 344 343 341 341 341 341
324 318 319 319 318 319 318 321 322 322 323 334 336 347 349 348 347 347 349 353 361 361 362 363 362 363 363 362 356 351 352 355 355 352 350 351 351 350 348 348 347 345 346 346 345 344 342 344 345
322 318 318 320 320 320 320 323 323 325 325 331 334 337 336 344 348 350 351 357 362 364 360 360 362 356 355 355 353 352 355 351 351 350 352 350 350 349 348 346 345 345 346 346 346 346 346 346 346
322 322 317 317 318 319 320 320 326 332 330 332 332 336 342 350 351 352 354 361 364 357 355 358 354 345 341 343 351 351 340 339 349 354 353 350 349 348 347 345 344 342 339 337 342 346 346 346 344
322 321 321 316 322 321 322 324 332 339 336 341 342 347 355 354 357 363 363 361 356 352 351 353 350 343 348 354 353 342 340 344 351 353 352 350 349 347 345 345 343 340 341 344 343 343 343 344 344
321 321 319 316 317 320 322 327 333 346 347 349 351 364 360 363 365 361 358 354 351 351 350 349 347 346 352 354 353 352 354 354 354 352 351 349 346 346 343 343 342 342 343 343 342 344 344 344 343
322 322 320 321 319 321 322 325 343 335 350 353 355 361 367 366 364 361 358 356 351 350 348 348 348 353 353 354 347 350 354 354 351 349 349 348 346 344 340 338 341 342 342 341 340 341 342 343 342
Wind_Speed
10 6 2 3 1 0 3 3 6 9 9 8 13 6 5 4 3 3 16 18 31 29 26 23 22 19 18 17 16 16 16 15 14 13 13 13 14 14 14 13 13 13 13 13 13 13 12 13 15
12 5 3 2 1 3 4 1 12 14 12 16 16 15 12 5 7 12 14 28 34 32 28 24 22 19 18 17 16 17 16 15 14 13 12 12 12 13 13 12 12 12 13 14 13 12 12 13 13
10 7 2 2 1 4 3 1 13 12 16 14 5 6 5 4 12 20 20 34 33 31 27 24 22 20 20 19 17 16 16 15 14 13 12 12 11 11 10 11 12 13 12 13 12 11 11 13 13
8 2 2 1 4 2 8 6 17 14 12 10 10 5 5 10 23 19 32 32 32 29 26 24 22 20 20 19 18 17 16 15 13 12 13 13 12 11 10 10 11 11 12 12 10 10 11 13 13
5 3 4 4 5 4 5 11 17 9 8 11 8 5 4 6 22 36 34 33 32 30 27 25 24 22 20 19 17 16 15 15 13 12 12 12 13 13 12 11 10 10 11 11 10 11 11 11 12
3 3 3 2 6 4 4 9 13 10 13 14 12 9 3 24 33 33 36 35 32 32 29 26 23 22 21 20 18 17 15 13 13 11 10 11 12 12 12 12 11 10 11 12 12 11 11 11 12
5 4 3 7 9 1 6 4 8 12 13 9 14 6 5 13 26 34 34 36 35 32 32 29 27 24 21 19 17 17 16 15 13 12 11 11 11 11 12 12 12 11 10 12 11 12 11 10 11
4 4 5 6 4 4 5 5 8 10 10 16 16 8 6 9 30 32 35 37 34 32 30 29 27 25 24 22 20 18 16 15 14 13 13 13 12 10 10 12 12 12 12 12 12 12 11 11 11
5 2 8 14 9 5 6 7 1 2 9 5 9 8 18 29 29 27 26 22 25 26 28 27 26 24 22 21 20 18 16 14 14 13 12 11 12 12 12 12 12 13 13 13 12 13 12 12 12
6 4 11 17 20 11 9 11 10 6 6 3 9 13 32 28 28 24 24 21 23 25 27 27 26 25 23 22 20 19 18 17 15 14 13 12 12 12 13 14 13 13 13 13 13 14 13 11 13
6 7 11 16 14 13 15 8 6 11 5 8 21 24 19 21 20 23 25 28 29 30 27 27 26 25 24 22 20 19 18 17 16 15 14 11 9 11 15 14 14 14 15 15 15 15 15 14 13
6 9 6 7 3 4 9 7 6 13 10 14 23 29 21 17 16 19 23 26 26 30 30 28 26 27 25 22 20 18 18 17 16 15 14 13 12 12 13 16 17 16 15 16 16 16 15 14 13
5 6 11 16 13 5 11 14 11 17 9 18 20 22 22 19 17 22 26 30 33 32 32 31 28 26 25 23 21 18 16 17 16 15 16 12 10 11 12 14 15 16 16 16 17 16 14 14 14
6 8 14 14 14 8 11 7 7 12 12 20 22 20 20 22 21 22 23 25 30 36 35 32 31 27 27 25 22 22 17 18 18 17 19 16 11 12 14 14 15 17 19 16 16 17 15 13 12
6 10 14 16 7 8 7 8 8 8 24 23 22 21 20 20 27 27 29 30 34 33 37 34 33 30 26 24 23 24 19 18 19 20 18 18 16 13 13 14 15 15 17 19 19 16 17 17 14
7 3 6 8 9 11 2 14 9 16 22 22 23 21 20 21 25 33 32 34 37 35 34 36 35 33 27 26 24 26 21 20 19 22 21 17 19 19 19 17 16 17 18 18 19 17 16 17 17
7 6 12 15 12 8 13 11 7 15 20 21 22 21 21 20 19 30 31 35 40 41 37 36 36 36 33 27 23 22 22 23 21 20 20 18 17 16 17 21 20 19 20 21 21 20 18 16 15
7 7 7 11 20 12 13 10 5 14 20 23 22 21 21 21 24 30 29 33 39 43 41 40 38 36 30 24 22 19 19 20 22 21 21 19 18 18 17 18 19 22 22 21 21 21 19 19 17
8 9 13 18 22 4 13 9 7 11 14 17 20 20 21 23 21 28 27 32 35 40 42 41 39 35 30 26 24 22 24 22 20 18 16 17 17 18 18 19 18 21 23 23 21 19 17 16 15
12 13 18 19 18 7 8 8 9 8 9 12 20 20 23 19 14 17 26 30 36 40 44 41 40 36 33 30 29 25 25 19 18 12 15 16 19 18 18 17 18 21 23 21 19 18 14 12 12
13 8 15 14 19 3 1 8 7 8 3 6 10 22 23 22 19 16 19 28 34 37 39 41 41 37 36 31 29 22 17 18 16 17 17 17 17 19 16 14 18 24 23 23 21 17 14 12 11
10 17 16 16 6 6 4 5 8 8 10 7 11 12 18 21 18 17 19 24 35 37 39 39 38 37 35 31 30 27 20 17 19 18 19 18 18 17 15 14 19 23 26 25 25 21 19 14 13
12 16 17 17 5 3 7 3 8 4 8 6 7 13 19 22 20 19 21 30 31 34 36 36 37 35 33 31 29 23 18 17 15 15 19 21 20 17 16 15 14 19 26 24 19 18 19 18 17
13 6 1 4 4 3 5 4 12 5 6 5 5 10 18 21 20 22 18 23 27 28 31 34 33 35 31 29 26 19 16 14 16 13 20 24 24 18 17 17 17 16 21 22 20 19 20 19 19
3 5 5 3 3 7 4 1 14 11 7 8 10 12 19 23 23 12 16 17 25 29 26 30 33 32 29 27 20 17 18 15 15 12 13 16 20 20 21 21 19 16 14 14 14 15 17 17 17
8 8 6 7 4 7 6 6 15 11 19 16 8 11 9 13 14 14 17 18 26 28 29 30 31 24 20 18 15 14 11 6 17 14 14 17 19 19 19 18 17 14 14 14 13 13 13 14 14
10 4 9 6 2 3 3 9 10 8 1 11 9 8 9 10 12 16 16 21 25 26 29 34 29 21 18 15 13 11 5 7 22 9 13 15 13 14 15 15 15 15 17 16 13 13 12 12 12
8 4 1 2 3 7 5 5 6 7 4 8 8 10 6 11 14 12 13 17 21 24 29 29 24 19 17 17 16 14 10 19 11 9 12 11 10 11 12 13 13 15 15 11 9 10 11 11 11
2 3 2 3 5 6 2 6 4 9 3 8 6 7 11 12 13 13 13 19 22 24 28 26 22 22 21 18 16 13 12 12 8 9 8 9 9 11 12 12 13 13 14 12 11 9 9 10 9
11 11 7 6 7 3 5 5 4 6 4 10 9 7 9 8 9 12 13 19 20 21 24 25 24 22 19 19 14 13 12 11 11 9 11 8 9 10 14 13 12 12 12 13 12 11 11 10 9
Wind_Direction
193 155 206 229 299 308 323 30 145 95 63 74 81 117 152 106 150 176 146 160 155 152 155 157 156 155 151 151 148 144 144 141 132 124 117 117 117 120 118 113 116 120 127 128 128 123 119 122 124
174 156 223 264 329 71 290 125 86 101 116 98 92 85 73 88 76 119 116 157 156 151 153 157 158 156 156 155 153 150 148 144 140 134 124 123 122 123 122 118 120 127 124 127 125 126 124 131 126
170 186 240 205 244 169 155 162 124 115 131 117 95 81 73 108 120 145 163 162 156 152 154 154 156 156 158 160 156 153 152 152 149 140 136 133 128 126 127 130 126 127 131 134 132 130 138 139 130
158 161 264 328 264 174 137 144 114 106 87 96 123 59 66 146 149 154 154 159 155 154 158 157 158 155 156 159 159 158 157 155 152 152 148 141 138 139 133 137 135 132 135 135 136 142 146 145 140
25 90 20 282 286 161 148 130 136 124 101 116 109 99 70 95 151 148 155 157 157 161 163 161 162 159 158 158 159 158 159 162 161 156 154 149 150 151 147 144 147 145 144 144 147 147 153 155 153
73 78 31 315 280 147 110 139 132 120 135 114 105 106 97 135 140 155 158 160 160 160 165 164 165 164 164 162 162 164 164 163 161 160 162 159 157 152 154 152 158 157 157 156 153 153 157 163 160
120 109 248 293 18 354 165 161 126 140 147 149 139 110 157 144 152 164 163 167 166 165 165 167 167 166 165 164 165 168 168 168 172 170 170 171 161 161 160 161 163 167 167 163 162 165 169 175 174
123 93 289 313 225 12 204 146 138 144 172 130 141 139 180 192 159 152 161 167 168 167 168 170 169 169 169 171 176 178 179 179 181 179 179 177 181 182 176 171 170 172 175 174 173 174 178 186 182
129 167 247 258 230 194 215 125 6 149 134 184 182 147 156 168 157 139 151 152 158 167 173 174 173 175 175 177 181 182 184 190 193 194 193 196 201 200 197 192 183 181 179 180 185 185 189 195 194
163 190 246 219 253 204 227 141 166 143 137 76 89 109 149 160 151 147 155 161 163 171 177 180 181 181 180 182 186 191 190 195 199 202 200 208 216 212 212 206 195 193 188 188 190 192 193 197 201
214 221 266 278 236 188 186 160 161 137 214 194 147 147 159 164 166 160 166 169 173 179 178 185 187 186 186 184 187 194 202 205 203 205 204 203 222 228 227 215 206 201 198 193 196 199 203 205 207
286 267 288 314 313 160 187 136 184 166 200 160 157 156 161 169 181 171 171 175 179 178 185 186 190 188 191 191 191 196 206 209 210 205 208 218 221 244 238 214 216 209 210 207 204 206 209 214 217
297 304 314 313 312 225 152 192 190 202 144 152 152 156 165 172 183 189 186 174 182 182 188 191 189 192 192 195 197 203 209 207 211 221 219 216 219 216 220 213 214 218 220 218 209 206 213 216 215
285 313 312 310 301 291 168 223 123 229 155 153 161 171 174 178 180 187 190 192 175 186 190 195 193 191 192 194 204 208 214 215 220 223 219 213 207 192 210 217 212 224 222 219 216 216 217 215 219
317 337 319 302 306 302 353 309 194 187 156 163 170 176 179 195 182 189 191 190 193 187 193 196 195 195 196 197 202 205 211 211 219 225 230 219 213 211 220 222 218 221 211 219 221 223 224 230 222
351 37 331 285 356 300 25 262 224 155 154 173 176 184 185 196 198 194 191 190 191 189 190 196 196 195 192 187 188 184 199 209 224 223 229 229 230 235 234 231 225 214 210 202 205 210 213 219 222
2 273 280 306 303 283 289 259 214 169 167 178 182 187 191 201 204 199 196 186 187 190 191 193 194 191 191 197 199 201 219 220 232 230 234 241 242 240 241 235 232 218 213 211 211 218 219 220 218
254 270 278 271 286 314 306 258 267 168 172 186 187 191 195 200 204 199 195 183 181 187 192 192 192 193 196 201 204 208 224 227 229 245 245 248 248 246 245 239 237 223 214 213 214 220 217 220 221
226 255 262 274 280 288 276 281 242 211 186 193 190 193 198 204 201 194 188 176 175 182 187 191 191 195 192 192 197 206 216 221 235 238 242 250 252 245 246 245 236 212 209 203 206 207 210 209 211
237 255 270 279 276 204 272 274 253 249 235 197 192 197 198 200 187 184 179 170 174 179 187 190 194 195 196 197 200 208 222 230 241 257 242 249 250 246 238 237 219 208 206 201 199 192 197 214 210
247 227 259 255 282 260 292 311 309 296 248 232 203 204 195 186 187 176 178 175 174 181 185 189 194 198 197 200 201 207 224 233 244 249 242 244 232 227 232 235 217 209 205 204 208 205 200 199 206
255 248 251 265 293 270 85 268 307 283 304 305 288 187 192 189 180 178 181 177 180 184 184 189 191 197 197 199 200 208 220 223 238 241 232 237 224 226 225 228 216 215 208 208 214 211 212 214 208
243 256 250 253 208 54 322 61 265 340 309 294 261 205 182 185 172 181 188 184 181 175 179 187 189 191 190 195 204 208 220 238 249 245 237 221 222 224 224 217 213 209 205 209 209 209 212 219 233
254 246 50 59 104 288 250 128 289 232 221 256 263 159 168 172 180 195 177 164 169 170 173 184 178 184 192 197 198 200 208 224 239 250 239 232 227 218 227 218 212 206 209 217 219 220 227 235 235
217 60 298 323 340 228 225 59 258 274 209 219 209 177 177 177 187 149 154 158 160 164 166 173 183 185 192 193 188 194 206 213 228 220 227 220 214 214 222 225 218 207 200 205 214 211 214 221 233
234 170 179 216 211 257 125 228 268 250 268 212 186 166 156 180 178 159 160 160 158 157 158 163 174 165 174 179 186 196 209 206 256 223 225 214 211 222 230 227 219 201 194 183 187 207 209 223 231
268 185 195 137 37 36 207 288 310 305 239 154 160 132 153 149 146 151 153 156 150 148 154 165 166 160 169 177 172 154 158 277 251 210 222 209 214 232 234 226 216 196 192 195 194 206 207 215 221
168 200 266 8 158 271 288 283 248 303 245 111 128 144 143 125 130 133 136 136 137 140 149 161 163 162 172 176 174 180 200 203 230 214 206 198 201 208 215 208 203 197 204 201 200 205 208 208 211
291 293 93 128 137 181 245 272 244 249 320 106 92 118 137 132 132 138 134 131 127 136 148 159 173 175 180 187 179 179 196 206 198 200 202 195 194 198 200 195 200 212 201 199 200 206 203 200 204
212 231 197 195 237 191 156 268 333 289 50 104 89 70 55 66 119 131 133 133 134 140 157 167 177 181 181 178 175 169 175 175 181 187 184 192 196 192 199 206 203 210 210 210 202 202 207 205 198